Temperature
24 22 22 23 23 24 24 23 23 24 24 23 22 22 21 21 21 20 20 20 20 20 20 20 20 20 20 20 19 19 19 19 19 19 19 18 18 18 18 18 18 17 17 17
23 23 24 24 24 24 24 23 23 23 24 23 22 22 22 21 21 21 20 20 20 20 20 20 20 20 20 20 19 19 19 19 19 19 18 18 18 18 18 17 17 17 17 17
24 24 25 25 25 24 24 23 23 23 23 23 23 22 21 21 21 21 21 20 21 21 20 20 20 20 20 20 19 19 19 19 19 18 18 18 18 18 18 17 17 17 17 17
24 24 25 25 25 24 24 24 24 24 22 21 22 21 21 21 20 20 20 20 20 21 21 21 21 20 20 20 20 19 19 19 19 18 18 18 18 18 18 18 17 17 17 17
24 25 25 25 25 25 24 25 24 23 21 21 21 21 21 20 20 20 20 20 20 21 21 21 21 21 21 20 20 19 19 19 19 19 18 18 18 18 18 17 17 17 17 17
24 25 26 26 26 25 24 23 22 20 20 21 21 20 21 19 20 20 20 20 21 21 21 21 21 21 20 20 20 19 19 19 19 19 18 18 18 18 18 17 17 17 17 17
25 25 25 26 25 25 24 22 21 22 20 21 20 20 20 21 21 20 20 20 21 21 21 21 21 21 20 20 20 19 19 19 19 19 18 18 18 18 18 17 17 17 17 17
24 24 25 25 25 24 23 22 21 22 21 20 20 20 21 21 21 21 21 21 21 21 21 21 21 21 21 20 20 19 19 19 19 19 18 18 18 18 18 17 17 17 17 17
23 24 25 26 25 24 23 21 21 20 20 20 20 20 21 21 20 20 20 20 20 21 21 21 21 21 21 20 20 19 19 19 19 19 18 18 18 18 18 17 17 17 17 16
23 24 25 25 25 24 23 20 19 19 20 21 21 21 20 21 20 19 19 19 20 20 21 21 21 21 21 20 20 20 19 19 19 19 18 18 18 18 17 17 17 17 16 16
23 23 24 24 25 24 23 21 19 18 19 20 21 21 21 20 20 19 19 19 20 21 21 21 21 21 20 20 20 20 19 19 19 18 18 18 17 17 17 17 16 16 16 16
21 20 21 23 24 24 23 22 19 21 20 18 19 20 22 20 19 19 19 20 20 20 20 20 20 20 20 20 20 20 19 19 19 18 18 18 17 17 17 16 16 16 16 16
21 20 21 23 23 23 23 21 19 18 17 17 19 21 20 19 19 19 19 19 20 20 20 20 20 20 20 20 20 19 19 19 18 18 18 17 17 17 17 16 16 16 15 15
21 20 21 23 22 22 23 22 20 19 19 18 19 20 20 19 19 19 19 19 19 19 19 19 19 19 19 19 19 19 19 18 18 18 17 17 17 17 16 16 16 15 15 15
21 21 21 21 22 22 23 23 21 21 20 20 20 20 20 19 19 19 19 19 19 19 19 19 19 19 19 19 18 18 18 18 18 18 17 17 17 16 16 16 15 15 15 15
18 20 21 22 22 23 23 22 22 21 21 20 20 20 19 19 19 18 19 18 18 18 19 19 18 18 18 18 18 18 18 18 17 17 17 17 16 16 16 16 15 15 15 14
18 19 20 20 21 22 22 22 22 21 21 20 21 20 19 18 18 18 18 18 19 19 19 19 18 18 18 18 18 18 18 17 17 17 17 16 16 16 16 15 15 15 15 14
17 17 16 18 21 22 21 21 21 21 21 20 20 19 18 18 19 19 19 19 19 19 19 19 19 18 18 18 18 17 17 17 17 16 16 16 16 15 15 15 15 14 14 14
16 16 16 17 19 20 21 21 20 20 20 20 19 18 18 19 19 18 19 19 20 20 20 19 19 18 18 18 18 17 17 16 16 16 16 16 16 15 15 15 15 14 14 14
15 15 16 16 19 20 20 20 20 20 20 19 18 18 18 18 17 17 19 19 20 20 19 19 19 18 18 18 17 17 17 16 16 16 16 15 15 15 15 15 14 14 14 13
17 16 16 17 18 18 19 18 20 20 20 19 18 18 18 17 18 19 19 19 19 19 19 19 18 18 18 18 17 17 17 16 16 15 15 15 15 15 15 14 14 14 13 13
16 16 16 15 17 18 17 18 18 18 18 19 19 19 18 18 19 19 19 19 19 18 18 18 18 18 17 17 17 16 16 16 16 15 15 15 14 14 14 14 14 14 13 13
14 15 14 15 16 16 16 16 17 17 18 18 19 19 19 18 18 18 18 18 18 18 18 18 18 17 17 17 16 16 16 16 15 15 15 14 14 14 14 14 14 13 13 13
14 13 13 14 15 15 16 17 17 18 18 19 19 19 19 19 18 18 18 18 18 18 18 18 17 17 16 16 16 16 16 15 15 15 14 14 14 14 14 13 13 13 13 13
14 14 13 14 14 15 16 17 17 18 18 19 19 19 19 19 18 18 18 17 17 17 17 17 17 17 16 16 16 15 15 15 15 14 14 14 14 13 13 13 13 13 12 12
13 13 14 14 15 14 16 17 17 18 18 18 18 18 18 18 18 18 18 17 17 17 17 17 16 16 16 15 15 15 15 15 14 14 14 14 13 13 13 13 12 12 12 12
Wind_Speed
2 3 4 7 7 5 4 3 3 4 2 3 3 3 4 6 8 7 6 6 6 6 4 4 4 4 4 4 4 3 3 3 3 2 2 2 1 1 1 1 2 2 2 2
3 4 8 5 4 5 4 2 2 2 1 2 1 2 2 5 8 9 9 8 7 5 4 5 5 5 5 4 4 4 3 3 3 3 2 2 2 1 1 1 2 2 2 2
6 6 3 4 4 4 4 5 5 3 2 3 2 3 3 2 3 4 5 6 6 8 7 7 6 6 5 5 5 5 4 3 3 3 3 3 2 2 2 2 1 2 2 2
5 5 3 4 5 6 5 6 6 5 4 1 1 3 6 3 4 6 6 6 7 6 6 6 7 7 7 6 5 4 3 3 3 3 4 4 3 1 1 0 0 1 2 2
5 4 4 5 6 6 5 2 4 4 4 1 2 1 7 1 5 8 8 8 8 7 8 8 9 8 7 6 5 4 4 3 3 3 4 4 2 2 1 1 1 1 2 2
6 3 5 5 2 4 4 6 7 6 5 0 3 3 6 4 7 6 7 8 8 7 8 7 6 6 5 5 5 5 4 3 3 4 4 4 4 3 2 1 1 1 1 1
4 4 2 3 2 2 5 6 4 4 3 5 2 3 8 7 6 7 9 9 8 8 7 7 7 7 6 6 5 5 5 4 3 4 4 4 3 3 3 2 1 0 0 1
1 6 4 3 6 6 5 8 7 5 5 4 1 5 7 5 4 3 6 7 7 7 7 8 8 8 7 7 6 6 6 5 4 4 3 3 3 2 2 2 1 1 1 1
6 6 4 2 2 8 6 4 6 6 3 1 5 6 7 2 1 2 5 7 8 8 8 8 8 8 8 8 7 7 7 5 4 4 3 2 2 2 2 1 1 0 0 0
8 4 5 2 4 4 5 8 6 5 5 3 5 5 5 5 4 3 5 6 7 7 7 7 7 7 7 6 6 6 6 5 4 3 3 3 2 2 2 2 1 1 1 1
6 5 4 3 2 4 4 5 6 5 5 5 4 7 5 8 8 7 7 7 7 7 7 6 6 6 6 5 5 5 5 4 4 3 3 3 2 2 2 2 1 1 1 1
5 5 2 5 4 2 4 6 7 5 4 4 4 7 4 5 6 6 6 5 5 5 5 5 5 5 5 6 5 5 5 5 4 4 4 3 3 3 2 2 1 1 1 1
6 6 2 6 5 2 2 3 4 6 5 5 5 7 2 1 2 4 5 5 5 5 5 5 5 5 5 5 5 5 5 5 4 4 4 4 3 3 2 2 1 1 1 1
5 5 6 8 7 4 2 3 5 6 5 5 8 8 5 3 3 4 5 5 6 6 6 6 5 4 4 4 4 5 4 4 4 4 5 4 3 3 3 2 2 1 1 1
4 3 3 4 3 3 3 4 5 6 8 8 8 7 9 8 7 7 6 6 6 6 6 6 5 4 4 4 4 4 4 4 4 5 4 3 2 2 2 2 1 1 1 1
3 4 2 1 1 1 1 2 4 4 4 5 4 6 5 3 3 5 6 8 8 8 7 6 5 5 5 5 5 4 4 4 4 4 3 3 2 2 2 1 1 1 0 0
2 4 3 2 3 2 3 4 4 3 4 5 6 6 2 2 5 7 8 9 9 8 7 7 7 6 6 5 5 5 5 4 4 3 3 3 3 2 1 2 2 1 1 0
5 5 4 2 2 4 7 3 3 3 2 2 3 3 4 5 4 3 4 7 7 7 7 6 6 5 5 5 5 4 4 4 4 3 2 3 3 2 2 2 2 1 1 1
4 7 5 4 3 4 5 2 1 2 3 2 3 2 2 4 4 2 1 4 6 7 6 6 6 5 5 5 5 5 4 4 4 3 3 3 3 3 3 3 2 2 1 1
6 5 6 4 4 6 6 4 2 3 3 2 3 4 5 5 3 3 3 4 4 5 5 5 5 5 6 5 6 6 5 4 5 5 4 3 3 4 4 4 3 2 2 2
4 4 4 4 4 5 4 6 1 3 6 3 3 5 6 5 4 3 3 4 5 5 4 5 5 5 5 6 6 6 5 5 5 3 3 3 3 4 4 3 2 2 2 1
3 3 3 4 3 5 5 3 2 5 3 1 2 3 5 3 3 3 4 4 5 5 4 4 4 3 3 5 6 5 4 3 2 3 3 3 2 3 3 3 2 2 2 1
2 4 4 5 5 3 3 3 4 2 2 1 2 2 5 4 3 3 4 4 4 4 4 4 4 3 2 3 5 5 3 3 3 3 2 2 2 1 2 3 3 2 2 2
1 1 2 1 2 3 4 3 3 2 1 1 1 3 4 4 4 4 5 4 4 4 4 4 5 4 2 2 3 3 3 3 3 3 2 2 2 1 1 2 3 3 3 3
3 1 1 2 4 4 4 3 3 3 3 4 3 2 4 5 4 4 5 5 5 4 3 4 5 4 3 3 2 2 3 4 3 3 2 2 2 3 2 2 2 3 3 4
3 4 4 4 5 3 4 3 3 2 2 2 2 2 2 3 5 4 4 4 4 4 4 4 4 4 3 3 2 2 3 4 4 3 2 2 2 2 2 2 1 1 2 3
Wind_Direction
98 95 214 218 202 187 167 180 245 260 209 146 197 229 210 186 179 184 185 181 190 197 190 169 160 155 143 143 141 141 137 133 123 108 113 106 81 47 49 45 38 53 57 52
61 248 233 205 186 164 166 179 246 316 58 142 183 278 237 192 198 193 189 188 193 190 174 170 162 156 160 165 162 156 156 149 145 142 136 135 130 116 104 34 41 44 60 56
196 240 200 174 183 188 216 196 209 189 60 46 60 329 276 225 201 195 190 186 188 190 189 184 176 178 176 180 182 176 171 159 153 140 114 95 73 50 44 33 23 16 50 63
232 246 195 205 220 189 247 221 185 162 126 277 107 276 279 233 216 213 204 193 194 191 189 190 186 186 189 191 179 163 160 155 148 138 140 142 142 157 204 168 46 12 34 50
246 206 193 219 228 188 219 133 123 124 130 69 22 184 286 270 236 231 215 201 197 190 191 195 196 192 191 180 169 165 156 151 146 148 155 147 150 166 128 84 62 30 15 24
242 231 203 210 217 168 138 76 64 57 76 330 229 185 273 238 230 228 210 202 194 188 189 191 186 173 176 168 164 162 156 164 161 155 155 159 164 156 131 95 65 11 8 0
312 300 252 163 99 52 106 96 41 2 6 256 226 196 250 251 233 218 207 195 187 185 179 176 172 170 173 171 171 164 159 176 174 161 166 174 173 166 172 181 189 178 1 346
216 290 253 194 175 173 167 142 158 195 225 271 294 235 256 269 265 210 183 177 175 178 178 177 177 175 178 177 170 165 170 182 176 170 178 176 168 171 176 172 171 185 211 246
185 252 285 242 172 143 143 166 160 134 138 269 276 279 298 318 353 139 160 170 180 182 181 179 177 178 178 178 178 177 177 180 181 183 174 160 153 147 146 134 124 135 259 111
168 227 293 310 72 44 134 141 107 122 150 242 284 274 252 253 235 200 185 189 189 179 181 180 181 184 179 175 172 170 173 178 178 171 174 163 144 140 137 121 113 93 45 48
150 175 300 16 168 195 114 107 111 118 151 164 242 268 232 216 208 200 201 195 187 184 183 178 176 175 165 156 157 162 164 161 162 165 150 134 126 121 120 123 113 106 91 82
148 135 232 269 270 185 159 164 151 153 200 178 187 263 284 207 199 190 192 190 180 173 164 158 156 153 153 158 161 159 162 163 163 150 138 133 123 114 111 109 101 99 96 84
138 120 76 344 340 7 102 139 139 122 120 157 182 259 315 141 171 183 182 181 166 156 150 146 143 149 155 160 159 156 158 160 149 139 136 127 128 131 143 158 157 155 128 78
121 118 165 199 221 210 210 167 149 132 152 197 221 243 272 239 206 203 193 177 165 162 158 158 155 153 155 153 149 147 149 151 148 142 142 144 157 162 171 168 152 160 147 126
105 139 190 224 226 186 200 198 180 181 185 193 230 230 242 224 209 199 185 167 159 161 165 167 164 162 158 150 147 149 152 150 150 147 149 161 166 155 150 143 147 150 154 168
72 136 123 314 315 154 192 240 196 207 193 211 236 257 252 217 167 170 176 173 171 174 176 174 170 169 171 169 165 158 157 156 149 150 155 154 139 133 137 138 151 143 149 141
93 124 118 243 308 45 270 244 208 206 205 184 214 236 194 166 185 190 186 181 183 179 174 175 180 182 182 177 168 168 168 153 145 148 153 153 149 143 157 159 144 166 183 156
136 117 126 142 84 221 246 262 192 192 246 221 230 228 196 200 192 175 179 183 187 180 174 175 174 175 175 167 162 157 156 151 151 155 164 165 154 157 172 162 177 209 200 195
146 137 127 132 183 268 293 288 160 174 271 243 199 191 154 124 84 21 200 184 189 183 175 174 171 167 164 164 159 147 150 152 161 180 191 187 173 173 179 189 200 202 194 231
63 94 118 133 165 222 247 293 302 124 281 281 173 173 156 127 144 238 207 168 156 153 158 158 150 144 152 161 150 147 159 166 191 200 199 189 184 183 191 199 203 196 191 206
48 59 116 155 198 249 282 305 21 161 249 277 186 177 164 170 195 199 160 152 150 146 146 143 145 153 160 155 149 157 168 191 204 192 182 186 191 191 191 189 184 174 174 178
160 144 163 146 182 250 329 9 161 229 282 250 174 166 156 146 116 126 133 136 132 128 131 136 141 147 144 144 149 164 188 197 169 162 171 187 193 193 178 169 173 158 152 160
178 187 185 186 207 260 298 270 283 263 264 263 160 153 139 130 133 136 133 137 137 133 140 137 141 138 132 150 159 172 192 159 145 152 171 185 192 191 172 168 169 161 162 184
292 125 129 274 275 294 305 314 337 340 297 317 161 152 141 140 145 145 142 150 146 143 150 145 141 148 161 152 157 176 172 151 150 164 184 178 176 193 186 179 177 181 199 208
243 139 124 264 282 316 327 334 336 355 22 32 54 94 138 136 150 161 159 167 163 152 152 155 155 161 174 166 169 172 160 150 159 173 184 187 187 187 194 201 209 207 218 206
214 186 181 226 231 208 263 292 322 349 19 47 79 88 121 151 163 158 155 158 153 155 156 155 158 166 173 165 173 177 164 159 161 172 182 186 183 184 187 191 271 282 230 224
Height
1484 1490 1495 1491 1489 1490 1494 1499 1501 1496 1489 1492 1496 1496 1494 1493 1495 1496 1498 1499 1501 1502 1504 1506 1507 1509 1510 1512 1512 1513 1515 1515 1516 1516 1517 1517 1517 1517 1517 1517 1518 1518 1517 1517
1489 1492 1484 1482 1484 1488 1492 1499 1500 1495 1490 1493 1496 1496 1492 1492 1492 1493 1495 1497 1499 1501 1503 1504 1506 1508 1510 1511 1512 1513 1514 1515 1516 1516 1517 1517 1517 1517 1517 1517 1517 1517 1517 1516
1488 1483 1478 1482 1485 1490 1492 1496 1496 1497 1494 1494 1498 1501 1495 1492 1492 1494 1495 1496 1498 1500 1501 1503 1505 1507 1509 1510 1512 1513 1514 1515 1516 1516 1517 1517 1517 1517 1516 1516 1516 1516 1516 1516
1484 1478 1478 1482 1484 1486 1494 1484 1487 1492 1502 1509 1505 1517 1499 1493 1492 1492 1493 1494 1495 1498 1500 1501 1503 1505 1507 1509 1511 1513 1514 1515 1515 1516 1516 1516 1516 1516 1516 1516 1516 1516 1516 1515
1482 1477 1478 1482 1479 1480 1485 1480 1486 1492 1502 1511 1509 1515 1505 1494 1494 1490 1489 1490 1492 1494 1497 1499 1501 1503 1506 1508 1510 1512 1513 1514 1515 1515 1516 1516 1516 1515 1515 1515 1515 1515 1515 1514
1476 1472 1473 1473 1472 1475 1479 1485 1492 1501 1509 1521 1512 1516 1510 1498 1490 1486 1485 1487 1489 1491 1494 1497 1499 1502 1505 1507 1509 1510 1512 1513 1514 1514 1515 1515 1515 1515 1515 1514 1514 1514 1514 1514
1480 1474 1469 1470 1476 1478 1481 1498 1517 1520 1527 1523 1509 1512 1505 1485 1481 1480 1481 1483 1486 1489 1491 1494 1497 1500 1502 1505 1507 1508 1510 1511 1512 1513 1514 1514 1514 1514 1514 1513 1513 1513 1512 1512
1492 1490 1472 1468 1472 1480 1484 1493 1516 1526 1529 1521 1510 1511 1494 1479 1477 1477 1478 1480 1484 1487 1489 1492 1494 1497 1500 1502 1505 1507 1508 1510 1511 1512 1512 1513 1513 1513 1513 1513 1512 1512 1511 1511
1490 1487 1467 1465 1466 1472 1484 1492 1492 1510 1517 1523 1515 1503 1487 1478 1477 1477 1478 1479 1481 1484 1487 1490 1492 1495 1498 1500 1503 1505 1506 1508 1509 1510 1511 1511 1512 1512 1512 1512 1511 1511 1511 1510
1476 1483 1471 1466 1466 1471 1475 1485 1499 1511 1523 1526 1514 1506 1499 1484 1481 1478 1478 1478 1480 1483 1486 1488 1491 1493 1496 1498 1501 1503 1505 1506 1507 1508 1509 1510 1510 1510 1511 1511 1510 1510 1510 1509
1470 1482 1479 1473 1474 1477 1480 1487 1496 1509 1511 1522 1523 1509 1479 1477 1476 1476 1476 1477 1478 1481 1484 1486 1489 1492 1494 1497 1499 1502 1503 1505 1506 1507 1508 1508 1509 1509 1509 1509 1509 1509 1509 1508
1469 1481 1489 1479 1469 1467 1472 1479 1490 1501 1509 1513 1516 1504 1471 1471 1471 1472 1474 1476 1478 1481 1483 1486 1488 1491 1493 1495 1498 1500 1501 1502 1504 1505 1506 1507 1507 1507 1508 1507 1507 1508 1507 1507
1467 1481 1495 1491 1484 1474 1474 1478 1483 1492 1504 1513 1514 1497 1471 1470 1471 1472 1474 1475 1477 1480 1482 1485 1487 1489 1491 1494 1496 1498 1499 1501 1502 1503 1504 1505 1506 1506 1506 1506 1506 1506 1506 1506
1462 1477 1487 1493 1487 1477 1477 1477 1481 1488 1501 1506 1500 1487 1475 1472 1472 1472 1472 1474 1476 1479 1481 1483 1486 1488 1491 1493 1494 1496 1498 1500 1501 1502 1503 1503 1504 1504 1505 1505 1505 1505 1505 1505
1461 1475 1475 1475 1471 1471 1472 1473 1476 1480 1484 1490 1484 1482 1473 1469 1469 1470 1471 1473 1476 1478 1480 1482 1485 1487 1489 1492 1494 1495 1497 1498 1499 1500 1501 1501 1502 1503 1504 1504 1504 1504 1504 1504
1465 1473 1474 1475 1470 1470 1472 1471 1472 1474 1475 1478 1477 1476 1466 1466 1468 1469 1470 1472 1474 1476 1479 1481 1484 1487 1488 1491 1492 1494 1495 1497 1498 1499 1499 1500 1501 1502 1502 1502 1503 1503 1503 1503
1470 1474 1481 1485 1476 1473 1481 1472 1471 1470 1469 1472 1475 1470 1466 1467 1467 1467 1469 1470 1472 1474 1477 1480 1483 1485 1487 1489 1491 1493 1494 1495 1497 1498 1498 1499 1499 1500 1501 1501 1502 1502 1502 1501
1470 1477 1486 1489 1484 1492 1478 1464 1464 1467 1466 1466 1465 1465 1465 1465 1466 1467 1469 1470 1471 1474 1476 1479 1481 1484 1486 1488 1490 1491 1493 1494 1494 1496 1497 1497 1498 1498 1499 1500 1500 1501 1500 1499
1464 1473 1485 1492 1493 1486 1473 1464 1464 1468 1468 1463 1464 1463 1464 1465 1467 1469 1469 1470 1471 1473 1475 1478 1480 1482 1484 1487 1488 1489 1491 1492 1493 1494 1495 1495 1496 1497 1497 1498 1498 1498 1498 1498
1467 1470 1482 1490 1490 1492 1475 1463 1461 1465 1470 1462 1461 1462 1463 1465 1471 1470 1468 1470 1471 1473 1475 1477 1478 1480 1483 1485 1486 1488 1489 1490 1491 1492 1493 1494 1495 1495 1496 1496 1496 1497 1496 1496
1474 1478 1483 1487 1487 1480 1467 1463 1462 1475 1471 1461 1460 1461 1462 1464 1466 1467 1467 1469 1470 1472 1474 1476 1478 1479 1481 1484 1485 1486 1488 1489 1490 1491 1491 1492 1493 1494 1494 1495 1495 1495 1495 1494
1477 1481 1484 1488 1488 1483 1467 1464 1467 1467 1461 1460 1460 1460 1461 1462 1464 1465 1466 1468 1470 1472 1475 1476 1478 1479 1481 1482 1484 1485 1486 1487 1489 1489 1490 1490 1491 1492 1492 1493 1493 1493 1493 1492
1476 1476 1477 1479 1479 1471 1467 1466 1464 1463 1461 1460 1459 1460 1461 1462 1464 1465 1466 1468 1470 1471 1474 1476 1478 1480 1480 1482 1483 1484 1485 1486 1487 1488 1488 1489 1490 1490 1490 1491 1491 1491 1490 1490
1473 1472 1474 1474 1470 1468 1467 1465 1463 1462 1461 1460 1461 1461 1462 1463 1464 1465 1467 1469 1470 1472 1474 1476 1477 1479 1480 1481 1482 1483 1484 1484 1485 1486 1486 1487 1487 1488 1488 1488 1488 1488 1488 1488
1471 1471 1473 1473 1469 1467 1465 1464 1464 1462 1461 1461 1461 1462 1463 1464 1465 1466 1467 1469 1470 1471 1473 1475 1476 1477 1478 1480 1481 1482 1482 1483 1483 1483 1484 1485 1485 1485 1486 1486 1486 1486 1486 1486
1469 1470 1471 1471 1467 1467 1465 1465 1464 1463 1462 1462 1462 1463 1464 1464 1464 1465 1466 1468 1469 1471 1472 1474 1475 1476 1477 1478 1479 1480 1480 1480 1481 1481 1482 1482 1482 1483 1483 1483 1484 1483 1484 1484